Location: Newark
(41.9000°N, 12.4833°E)
Time: 20:36:28
(UTC+00:00)

EO-79 - Pass Details

Date: 21 May 2019
Orbit: 591 x 611 km, 97.9° (Epoch: 16 June)

Event Time Altitude Azimuth Distance (km) Brightness Sun altitude
Rises 00:36:39 0° 359° (N) 2,843 ? -24.6°
Reaches altitude 10° 00:39:10 10° 345° (NNW) 1,934 ? -24.4°
Enters shadow 00:42:18 23° 296° (WNW) 1,287 ? -24.2°
